Location: Napier
(39.4830°S, 176.9170°E)
Time: 03:21:48
(UTC+12:00)

Okean O Rocket - Pass Details

Date: 15 August 2020
Orbit: 623 x 644 km, 98.2° (Epoch: 20 September)

Event Time Altitude Azimuth Distance (km) Brightness Sun altitude
Rises 18:03:05 0° 163° (SSE) 2,947 4.7 -6.2°
Reaches altitude 10° 18:05:21 10° 157° (SSE) 2,030 3.9 -6.6°
Maximum altitude 18:09:41 54° 80° (E) 774 1.7 -7.4°
Drops below altitude 10° 18:13:57 10° 2° (N) 2,000 4.3 -8.2°
Sets 18:16:10 0° 357° (N) 2,899 5.2 -8.7°
